This is the latest recevied weather packets stored in our database for station/object N8SDR. If no packets are shown the sender has not sent any weather packets the latest 1 day(s).
| Time | Temp. | Humidity | Pressure | Rain* | Wind** | Luminosity | Snow |
|---|---|---|---|---|---|---|---|
| 1778064139 | 6.67° C | 99% | 1006.4 hPa | 0 mm | - | 2 W/m² | - |
| 1778063836 | 6.67° C | 99% | 1006.2 hPa | 0 mm | - | 0 W/m² | - |
| 1778062625 | 6.67° C | 99% | 1005.9 hPa | 0 mm | - | 0 W/m² | - |
| 1778062020 | 6.67° C | 99% | 1005.9 hPa | 0 mm | - | 0 W/m² | - |
| 1778061416 | 6.67° C | 99% | 1005.4 hPa | 0 mm | - | 0 W/m² | - |
| 1778061112 | 6.67° C | 99% | 1005.8 hPa | 0 mm | - | 0 W/m² | - |
| 1778060206 | 6.11° C | 99% | 1006 hPa | 0 mm | - | 0 W/m² | - |
| 1778059600 | 6.67° C | 99% | 1005.5 hPa | 0 mm | - | 0 W/m² | - |
| 1778059297 | 6.11° C | 99% | 1005.6 hPa | 0 mm | - | 0 W/m² | - |
| 1778058995 | 6.11° C | 99% | 1005.2 hPa | 0 mm | - | 0 W/m² | - |
| 1778056873 | 6.11° C | 99% | 1005.3 hPa | 0 mm | - | 0 W/m² | - |
| 1778055964 | 6.11° C | 99% | 1005.2 hPa | 0 mm | - | 0 W/m² | - |
| 1778055660 | 6.11° C | 99% | 1005.3 hPa | 0 mm | - | 0 W/m² | - |
| 1778055358 | 6.11° C | 99% | 1005 hPa | 0 mm | - | 0 W/m² | - |
| 1778054753 | 6.11° C | 99% | 1004.8 hPa | 1.27 mm | - | 0 W/m² | - |
| 1778053844 | 6.67° C | 99% | 1005.1 hPa | 0 mm | - | 0 W/m² | - |
| 1778053542 | 6.67° C | 99% | 1004.9 hPa | 1.78 mm | - | 0 W/m² | - |
| 1778052936 | 6.67° C | 99% | 1005 hPa | 1.27 mm | - | 0 W/m² | - |
| 1778052330 | 7.22° C | 99% | 1005.2 hPa | 1.78 mm | - | 0 W/m² | - |
| 1778052028 | 7.22° C | 99% | 1005.1 hPa | 1.78 mm | - | 0 W/m² | - |
| 1778051726 | 7.78° C | 99% | 1004.9 hPa | 1.27 mm | - | 0 W/m² | - |
| 1778051423 | 7.78° C | 99% | 1004.9 hPa | 3.05 mm | - | 0 W/m² | - |
| 1778050817 | 8.33° C | 99% | 1004.8 hPa | 3.05 mm | - | 0 W/m² | - |
| 1778049302 | 8.33° C | 99% | 1004.5 hPa | 1.27 mm | - | 0 W/m² | - |
| 1778048999 | 8.33° C | 99% | 1004.5 hPa | 0 mm | - | 0 W/m² | - |
* Rain latest hour (hover to see other rain measurements)
** Current wind speed in m/s (hover to see current wind gust speed)